Location: Kellogg
(38.0159°N, 90.0546°W)
Time: 11:49:07
(UTC+00:00)

Transit 2A - Pass Details

Date: 15 September 2024
Orbit: 590 x 960 km, 66.7° (Epoch: 11 October)

Event Time Altitude Azimuth Distance (km) Brightness Sun altitude
Rises 09:56:46 0° 329° (NNW) 3,618 9.4 -21.1°
Reaches altitude 10° 09:59:24 10° 326° (NNW) 2,642 8.6 -20.6°
Maximum altitude 10:05:31 66° 246° (WSW) 961 6.2 -19.5°
Drops below altitude 10° 10:11:06 10° 165° (SSE) 2,419 8.5 -18.4°
Sets 10:13:26 0° 163° (SSE) 3,292 9.3 -18.0°
